KMM642 LMML-LICC

Flight info

Callsign KMM642
Flight time 0h 38m
Altitude 12000
Route GZO N982 DIRKA/N0359F140 N982 NELDA
Aircraft A20N/M-SDE2E3FGHIRWXY/LB1

Departure

Time 2026-05-04 20:07
Airport Malta International Airport (LMML)

Arrival

Time 2026-05-04 20:46
Airport Catania-Fontanarossa Airport (LICC)
Time Latitude Longitude Altitude Speed Heading
2026-05-04 19:56 35.84909 14.49396 253 ft 0 kts 359°
2026-05-04 20:01 35.84896 14.49396 253 ft 2 kts 359°
2026-05-04 20:01 35.84880 14.49396 253 ft 2 kts 359°
2026-05-04 20:01 35.84863 14.49397 253 ft 2 kts 358°
2026-05-04 20:02 35.84847 14.49398 253 ft 2 kts 355°
2026-05-04 20:02 35.84830 14.49401 253 ft 2 kts 327°
2026-05-04 20:02 35.84827 14.49404 253 ft 0 kts 314°
2026-05-04 20:03 35.84832 14.49397 253 ft 4 kts 314°
2026-05-04 20:04 35.84893 14.49320 253 ft 17 kts 314°
2026-05-04 20:04 35.84937 14.49203 254 ft 15 kts 252°
2026-05-04 20:04 35.84916 14.49087 255 ft 16 kts 305°
2026-05-04 20:04 35.84979 14.48963 255 ft 18 kts 294°
2026-05-04 20:05 35.85013 14.48807 257 ft 20 kts 285°
2026-05-04 20:05 35.85064 14.48648 258 ft 21 kts 300°
2026-05-04 20:05 35.85150 14.48499 260 ft 22 kts 311°
2026-05-04 20:05 35.85262 14.48356 260 ft 24 kts 317°
2026-05-04 20:06 35.85387 14.48203 261 ft 26 kts 313°
2026-05-04 20:06 35.85534 14.48075 261 ft 25 kts 336°
2026-05-04 20:06 35.85669 14.48010 263 ft 16 kts 320°
2026-05-04 20:06 35.85633 14.47926 263 ft 13 kts 190°
2026-05-04 20:07 35.85556 14.47994 262 ft 16 kts 133°
2026-05-04 20:07 35.85304 14.48307 260 ft 94 kts 135°
2026-05-04 20:07 35.84665 14.49098 291 ft 160 kts 135°
2026-05-04 20:07 35.83840 14.50093 966 ft 172 kts 137°
2026-05-04 20:08 35.82942 14.51175 1745 ft 191 kts 137°
2026-05-04 20:08 35.81905 14.52395 2385 ft 217 kts 137°
2026-05-04 20:08 35.80722 14.53654 3030 ft 239 kts 153°
2026-05-04 20:08 35.79039 14.54047 3601 ft 258 kts 189°
2026-05-04 20:09 35.77424 14.53064 4445 ft 265 kts 225°
2026-05-04 20:09 35.76463 14.51141 5352 ft 271 kts 249°
2026-05-04 20:09 35.75805 14.48920 6324 ft 276 kts 251°
2026-05-04 20:09 35.75098 14.46730 7256 ft 279 kts 248°
2026-05-04 20:10 35.74246 14.44564 8230 ft 282 kts 244°
2026-05-04 20:10 35.73312 14.42413 9171 ft 285 kts 249°
2026-05-04 20:10 35.72973 14.40032 10082 ft 284 kts 274°
2026-05-04 20:10 35.73216 14.37623 10769 ft 293 kts 289°
2026-05-04 20:11 35.74228 14.35362 11096 ft 314 kts 312°
2026-05-04 20:11 35.76017 14.33714 11529 ft 329 kts 336°
2026-05-04 20:11 35.78217 14.32817 12004 ft 334 kts 342°
2026-05-04 20:11 35.80406 14.31970 12146 ft 334 kts 341°
2026-05-04 20:12 35.82609 14.31025 12180 ft 334 kts 339°
2026-05-04 20:12 35.84792 14.30005 12181 ft 334 kts 338°
2026-05-04 20:12 35.86960 14.28944 12181 ft 334 kts 337°
2026-05-04 20:12 35.89089 14.27882 12180 ft 334 kts 337°
2026-05-04 20:13 35.91248 14.26797 12178 ft 334 kts 337°
2026-05-04 20:13 35.93404 14.25715 12182 ft 334 kts 337°
2026-05-04 20:13 35.95548 14.24639 12181 ft 334 kts 337°
2026-05-04 20:13 35.97707 14.23557 12179 ft 334 kts 337°
2026-05-04 20:14 35.99863 14.22478 12176 ft 334 kts 337°
2026-05-04 20:14 36.02041 14.21457 12174 ft 334 kts 343°
2026-05-04 20:14 36.04309 14.20983 12177 ft 337 kts 356°
2026-05-04 20:14 36.06678 14.21176 12174 ft 339 kts
2026-05-04 20:15 36.09004 14.21718 12170 ft 339 kts
2026-05-04 20:15 36.11302 14.22242 12172 ft 339 kts
2026-05-04 20:15 36.13632 14.22768 12169 ft 340 kts
2026-05-04 20:15 36.15177 14.23116 12172 ft 340 kts
2026-05-04 20:16 36.18268 14.23812 12169 ft 339 kts
2026-05-04 20:16 36.19810 14.24159 12170 ft 339 kts
2026-05-04 20:16 36.22151 14.24688 12172 ft 339 kts
2026-05-04 20:16 36.24454 14.25208 12172 ft 339 kts
2026-05-04 20:17 36.26785 14.25734 12169 ft 339 kts
2026-05-04 20:17 36.29117 14.26262 12169 ft 340 kts
2026-05-04 20:17 36.31442 14.26788 12172 ft 340 kts
2026-05-04 20:17 36.33772 14.27316 12169 ft 340 kts
2026-05-04 20:18 36.36070 14.27836 12173 ft 340 kts
2026-05-04 20:18 36.38403 14.28366 12170 ft 339 kts
2026-05-04 20:18 36.40732 14.28894 12169 ft 340 kts
2026-05-04 20:18 36.43064 14.29424 12172 ft 340 kts
2026-05-04 20:19 36.45393 14.29953 12168 ft 340 kts
2026-05-04 20:19 36.47691 14.30476 12171 ft 339 kts
2026-05-04 20:19 36.50026 14.31007 12173 ft 340 kts
2026-05-04 20:19 36.52364 14.31539 12166 ft 340 kts
2026-05-04 20:20 36.54664 14.32061 12165 ft 340 kts
2026-05-04 20:20 36.56992 14.32590 12164 ft 340 kts
2026-05-04 20:20 36.59335 14.33123 12168 ft 340 kts
2026-05-04 20:20 36.61638 14.33647 12171 ft 340 kts
2026-05-04 20:21 36.63971 14.34178 12170 ft 340 kts
2026-05-04 20:21 36.66280 14.34704 12164 ft 340 kts
2026-05-04 20:21 36.70951 14.35770 12169 ft 340 kts
2026-05-04 20:22 36.73260 14.36298 12173 ft 340 kts
2026-05-04 20:22 36.75599 14.36832 12172 ft 340 kts
2026-05-04 20:22 36.77932 14.37365 12175 ft 340 kts
2026-05-04 20:22 36.80272 14.37901 12175 ft 340 kts
2026-05-04 20:23 36.82576 14.38428 12179 ft 340 kts
2026-05-04 20:23 36.84898 14.39070 12179 ft 342 kts 15°
2026-05-04 20:23 36.87100 14.40233 12175 ft 345 kts 26°
2026-05-04 20:23 36.89082 14.41895 12189 ft 347 kts 35°
2026-05-04 20:24 36.91004 14.43727 12176 ft 347 kts 34°
2026-05-04 20:24 36.92917 14.45533 12180 ft 347 kts 34°
2026-05-04 20:24 36.94850 14.47356 12189 ft 347 kts 34°
2026-05-04 20:24 36.96780 14.49175 12180 ft 347 kts 34°
2026-05-04 20:25 36.98683 14.50971 12187 ft 347 kts 34°
2026-05-04 20:25 37.00612 14.52793 12186 ft 347 kts 34°
2026-05-04 20:25 37.02538 14.54615 12185 ft 347 kts 34°
2026-05-04 20:25 37.04465 14.56437 12183 ft 347 kts 34°
2026-05-04 20:26 37.06394 14.58264 12181 ft 347 kts 34°
2026-05-04 20:26 37.08321 14.60094 12187 ft 347 kts 34°
2026-05-04 20:26 37.10248 14.61922 12182 ft 346 kts 34°
2026-05-04 20:26 37.12171 14.63748 12180 ft 347 kts 34°
2026-05-04 20:27 37.14070 14.65551 12178 ft 347 kts 34°
2026-05-04 20:27 37.16000 14.67384 12174 ft 347 kts 35°
2026-05-04 20:27 37.17923 14.69211 12177 ft 347 kts 35°
2026-05-04 20:27 37.19842 14.71073 12168 ft 347 kts 36°
2026-05-04 20:28 37.21707 14.72972 12175 ft 347 kts 37°
2026-05-04 20:28 37.23585 14.74913 12158 ft 348 kts 37°
2026-05-04 20:28 37.25456 14.76846 12164 ft 348 kts 37°
2026-05-04 20:28 37.27293 14.78733 12164 ft 348 kts 37°
2026-05-04 20:29 37.29178 14.80664 12165 ft 347 kts 37°
2026-05-04 20:29 37.31059 14.82592 12160 ft 348 kts 38°
2026-05-04 20:29 37.32638 14.84844 12166 ft 352 kts 56°
2026-05-04 20:29 37.33629 14.87673 12169 ft 356 kts 74°
2026-05-04 20:30 37.34094 14.90738 12170 ft 357 kts 78°
2026-05-04 20:30 37.34523 14.93812 12165 ft 357 kts 78°
2026-05-04 20:30 37.34953 14.96893 12166 ft 357 kts 78°
2026-05-04 20:30 37.35385 14.99953 12075 ft 350 kts 78°
2026-05-04 20:31 37.35807 15.02937 11757 ft 344 kts 78°
2026-05-04 20:31 37.36215 15.05836 11322 ft 334 kts 78°
2026-05-04 20:31 37.36615 15.08666 10943 ft 323 kts 78°
2026-05-04 20:31 37.37004 15.11420 10507 ft 315 kts 78°
2026-05-04 20:32 37.37382 15.14099 10076 ft 306 kts 78°
2026-05-04 20:32 37.37748 15.16699 9631 ft 297 kts 78°
2026-05-04 20:32 37.38103 15.19222 9213 ft 288 kts 79°
2026-05-04 20:32 37.38447 15.21671 8805 ft 280 kts 79°
2026-05-04 20:33 37.38777 15.24027 8400 ft 273 kts 79°
2026-05-04 20:33 37.39104 15.26364 8002 ft 266 kts 79°
2026-05-04 20:33 37.39421 15.28640 7606 ft 260 kts 79°
2026-05-04 20:33 37.39728 15.30834 7215 ft 255 kts 79°
2026-05-04 20:34 37.40032 15.33010 6832 ft 250 kts 79°
2026-05-04 20:34 37.40329 15.35142 6438 ft 245 kts 79°
2026-05-04 20:34 37.40621 15.37240 6038 ft 241 kts 80°
2026-05-04 20:34 37.40907 15.39305 5633 ft 238 kts 80°
2026-05-04 20:35 37.41189 15.41344 5237 ft 235 kts 80°
2026-05-04 20:35 37.41463 15.43322 4902 ft 230 kts 80°
2026-05-04 20:35 37.41733 15.45286 4543 ft 226 kts 80°
2026-05-04 20:35 37.42003 15.47242 4186 ft 226 kts 81°
2026-05-04 20:36 37.42266 15.49159 3943 ft 223 kts 81°
2026-05-04 20:36 37.42559 15.51086 3970 ft 226 kts 71°
2026-05-04 20:36 37.43418 15.52729 3984 ft 227 kts 39°
2026-05-04 20:36 37.44826 15.53519 3975 ft 227 kts
2026-05-04 20:37 37.46401 15.53364 3983 ft 227 kts 348°
2026-05-04 20:37 37.47939 15.52922 3983 ft 226 kts 346°
2026-05-04 20:37 37.49475 15.52460 3960 ft 227 kts 346°
2026-05-04 20:37 37.50983 15.51886 3732 ft 226 kts 329°
2026-05-04 20:38 37.52058 15.50513 3513 ft 221 kts 295°
2026-05-04 20:38 37.52355 15.48632 3294 ft 222 kts 262°
2026-05-04 20:38 37.52099 15.46742 3084 ft 220 kts 258°
2026-05-04 20:38 37.51826 15.44864 2985 ft 217 kts 258°
2026-05-04 20:39 37.51556 15.42973 2986 ft 219 kts 259°
2026-05-04 20:39 37.51294 15.41099 2983 ft 219 kts 259°
2026-05-04 20:39 37.51032 15.39197 2983 ft 217 kts 259°
2026-05-04 20:39 37.50788 15.37403 2983 ft 202 kts 259°
2026-05-04 20:40 37.50566 15.35718 2951 ft 189 kts 260°
2026-05-04 20:40 37.50371 15.34092 2834 ft 189 kts 261°
2026-05-04 20:40 37.50201 15.32444 2693 ft 187 kts 263°
2026-05-04 20:40 37.50071 15.30832 2487 ft 184 kts 265°
2026-05-04 20:41 37.49971 15.29229 2283 ft 180 kts 263°
2026-05-04 20:41 37.49852 15.27741 2196 ft 167 kts 264°
2026-05-04 20:41 37.49692 15.26324 2041 ft 160 kts 260°
2026-05-04 20:41 37.49492 15.24966 1874 ft 154 kts 259°
2026-05-04 20:42 37.49235 15.23704 1697 ft 145 kts 255°
2026-05-04 20:42 37.48964 15.22445 1566 ft 151 kts 256°
2026-05-04 20:42 37.48643 15.21197 1431 ft 145 kts 249°
2026-05-04 20:42 37.48294 15.20054 1278 ft 137 kts 252°
2026-05-04 20:43 37.48027 15.18930 1270 ft 136 kts 256°
2026-05-04 20:43 37.47823 15.17820 1276 ft 138 kts 258°
2026-05-04 20:43 37.47682 15.16993 1181 ft 138 kts 258°
2026-05-04 20:43 37.47505 15.15834 1208 ft 134 kts 260°
2026-05-04 20:44 37.47334 15.14661 1272 ft 136 kts 261°
2026-05-04 20:44 37.47218 15.13521 1096 ft 129 kts 264°
2026-05-04 20:44 37.47143 15.12404 813 ft 125 kts 265°
2026-05-04 20:44 37.47063 15.11307 592 ft 128 kts 265°
2026-05-04 20:45 37.46968 15.10209 440 ft 124 kts 264°
2026-05-04 20:45 37.46882 15.09110 274 ft 127 kts 265°
2026-05-04 20:45 37.46787 15.08009 105 ft 129 kts 264°
2026-05-04 20:45 37.46704 15.06930 38 ft 114 kts 264°
2026-05-04 20:46 37.46632 15.06078 40 ft 78 kts 264°
2026-05-04 20:46 37.46589 15.05597 41 ft 32 kts 267°
2026-05-04 20:46 37.46677 15.05464 46 ft 1 kts
2026-05-04 20:46 37.46679 15.05464 46 ft 2 kts
2026-05-04 20:47 37.46704 15.05472 46 ft 0 kts 20°
2026-05-04 20:47 37.46707 15.05473 46 ft 7 kts 21°
2026-05-04 20:47 37.46758 15.05597 45 ft 20 kts 81°
2026-05-04 20:47 37.46772 15.05781 43 ft 22 kts 83°
2026-05-04 20:48 37.46790 15.05988 40 ft 25 kts 84°
2026-05-04 20:48 37.46808 15.06198 36 ft 23 kts 84°
2026-05-04 20:48 37.46825 15.06409 34 ft 24 kts 84°
2026-05-04 20:48 37.46840 15.06584 34 ft 18 kts 82°
2026-05-04 20:49 37.46860 15.06608 33 ft 3 kts 338°
2026-05-04 20:49 37.46905 15.06617 32 ft 11 kts 18°
2026-05-04 20:49 37.46927 15.06626 32 ft 0 kts 18°